星链-1658 (STARLINK-1658 )

导读

STARLINK-1658是美国太空探索技术公司(SpaceX)星链(Starlink)星座的卫星,于2020年9月3日发射。星链旨在构建全球卫星互联网,该卫星作为组网成员,通过部署在近地轨道,为全球偏远地区、海洋空域等提供高速低延迟互联网接入服务,助力太空通信基础设施的完善。

基本信息
目录编号:
46368
目录名称:
STARLINK-1658
国际标识:
2020-062AV
轨道中心:
EARTH
卫星名称:
星链-1658
卫星全名:
星链-1658 (STARLINK-1658 )
卫星状态:
已陨落 最后检测时间 2024-08-10
发射日期:
2020-09-03 UTC
国别 :
美国 (US)
星等 :
--
该卫星已列入 空间交会检测服务 Space Conjunction Data Service (SCDS) ,当前飞行风险评估等级: 无高风险
轨道信息
数据来源 国际轨道数据
星历时间: 2024-08-11T01:34:59+0800
轨道信息已过期763天
半长轴: 6558.434km
偏心率: 0.0003382
轨道倾角: 53.024°
近地点辐角 235.356°
升交点赤经 11.492°
平近点角 174.151°
近地点: 178.08km
远地点: 182.518km
周期: 88.097分钟
每日圈数: 16.345663
详细信息
固有亮度:
5
最大亮度:
2.5
卫星平台:
Starlink V1.0
覆盖范围:
全球
运营商:
太空探索技术公司
运营商所在国:
美国
制造商(研发单位):
太空探索技术公司
制造商所在国:
美国
使用方式:
暂无
卫星简介
星链(Starlink)计划是由太空探索技术公司(SpaceX)提出的一个巨型低轨卫星互联网星座项目,计划在2019年至2024年间在太空搭建由约1.2万颗卫星组成的“星链”网络,其中1584颗将部署在地球上空550千米处的近地轨道,并从2020年开始工作。该卫星仍在工作。
与全量物体交会距离演化趋势
与全量物体交会风险概率演化趋势